Wind_Speed
38 36 38 38 41 45 45 46 47 46 39 36 38 43 42 35 35 32 26 29 38 47 46 49 55 60 65 69 70 68 71 71 70 67 65 60 57 53 51 49 41 40 40 42
36 38 40 42 43 44 43 45 43 34 29 30 35 34 25 28 30 31 31 30 28 33 33 33 32 37 54 63 68 70 72 74 73 71 69 64 60 56 55 53 46 41 41 44
36 36 35 38 41 44 41 33 30 30 30 31 24 18 18 18 27 30 26 25 26 28 28 31 33 31 31 46 56 68 72 75 76 74 71 68 65 61 59 58 48 47 45 46
35 39 40 41 40 39 36 25 26 27 24 22 16 23 22 19 23 23 24 24 24 25 27 28 29 32 27 27 38 52 69 76 77 76 74 71 67 63 58 58 52 51 48 49
34 34 36 38 37 37 31 27 24 21 21 22 17 23 14 17 22 17 27 27 28 31 33 30 34 34 34 30 27 35 56 71 79 78 77 74 70 65 63 62 58 57 53 46
38 37 36 37 33 37 27 25 21 20 22 23 17 17 16 16 24 16 29 25 25 27 29 29 31 37 39 37 30 31 38 62 76 81 79 77 73 69 68 66 62 58 54 49
39 38 35 37 35 36 35 27 24 19 11 19 18 23 20 25 25 25 27 27 27 29 30 29 31 36 42 40 33 33 35 42 69 78 81 77 73 70 68 66 63 61 58 52
40 39 37 37 35 35 34 28 26 24 15 21 30 23 22 23 26 30 26 28 27 30 29 33 33 36 40 42 40 36 34 35 53 72 78 79 75 71 69 61 62 63 61 63
38 38 35 35 35 36 34 26 24 28 25 28 25 21 17 23 29 33 26 26 27 29 32 36 36 38 39 42 39 35 30 30 36 63 73 78 76 74 72 70 67 60 59 60
38 38 35 35 33 35 30 25 21 20 25 24 12 18 16 18 17 8 29 32 28 27 29 36 39 40 39 38 39 35 27 29 28 48 68 74 75 72 71 71 72 70 52 53
40 38 36 35 33 37 30 25 24 24 24 26 24 15 16 17 21 31 35 38 31 28 31 35 39 38 39 39 39 36 29 26 29 35 57 66 71 69 68 68 65 61 57 47
42 38 38 36 32 34 27 25 23 28 24 26 28 27 27 32 38 38 31 33 32 36 32 35 40 41 39 36 40 41 32 29 27 33 50 59 65 68 64 66 62 62 54 47
43 41 41 37 32 32 29 27 28 26 28 30 32 32 30 31 35 36 40 36 36 36 34 35 39 40 39 38 35 37 33 31 32 33 50 56 60 66 68 48 60 63 62 60
43 40 41 40 31 32 33 29 30 31 36 32 34 34 31 27 36 40 41 42 39 32 33 33 38 37 37 40 40 36 34 30 31 37 46 57 61 63 64 68 58 60 50 57
45 44 42 39 33 33 30 25 24 30 34 39 38 40 30 29 36 38 39 35 32 29 34 39 38 38 37 40 45 40 37 31 30 36 43 59 61 60 49 51 50 68 63 54
46 44 43 37 32 33 31 23 23 26 29 36 39 39 28 36 39 36 34 33 34 30 33 35 38 41 42 38 43 41 37 32 29 32 46 60 61 65 71 46 18 53 62 53
46 44 39 32 32 31 29 21 19 26 29 33 36 34 32 34 37 38 38 37 35 33 33 34 35 41 44 40 38 43 39 34 29 33 49 59 59 67 71 75 48 32 56 48
39 36 33 33 30 27 18 26 22 28 26 31 34 35 31 34 35 34 39 41 41 39 34 31 29 33 43 43 37 46 42 37 36 36 43 49 57 62 57 52 53 51 50 43
33 31 33 30 24 27 22 20 23 32 31 33 30 34 35 35 35 29 40 39 39 38 27 29 25 31 40 39 38 47 43 36 44 40 36 45 54 57 53 48 39 31 37 42
30 29 30 30 29 28 29 28 31 35 32 32 28 28 31 34 36 22 39 39 42 36 24 26 26 31 35 34 39 47 41 43 38 40 31 41 52 60 65 40 24 29 31 26
28 28 27 25 29 28 31 33 34 39 34 32 32 32 33 35 37 34 34 36 35 33 23 25 27 32 36 34 40 44 46 40 35 30 30 35 40 51 62 31 38 34 30 18
25 22 21 21 25 28 28 34 36 35 25 25 26 32 34 37 36 36 36 28 31 28 21 26 27 31 38 38 44 47 44 38 33 30 32 28 42 49 57 38 29 26 29 15
20 19 23 26 25 30 30 35 33 28 24 24 25 29 31 35 18 9 9 14 11 23 22 32 27 33 39 42 48 45 42 35 35 30 29 31 43 57 45 26 33 24 16 12
21 22 26 31 25 29 32 30 24 23 23 21 24 31 25 14 14 16 14 13 13 13 28 38 34 34 43 44 46 44 38 33 36 33 28 43 54 38 46 34 25 15 9 4
25 28 29 25 25 27 23 21 18 18 18 20 26 22 16 10 9 16 21 14 6 14 30 32 37 36 43 44 45 41 38 34 36 34 37 54 41 43 42 31 23 13 7 16
26 27 29 25 26 22 13 13 15 17 18 18 12 16 9 2 4 10 27 22 13 16 28 26 37 44 41 44 46 46 40 38 35 33 42 49 32 41 31 27 16 12 10 26
Wind_Direction
340 328 315 309 305 300 297 294 291 288 283 281 278 276 264 249 252 260 243 238 245 251 255 256 248 243 241 234 232 229 229 230 234 235 237 237 240 244 247 247 248 253 248 250
336 330 321 315 313 306 300 294 291 292 287 276 274 274 251 250 256 254 249 247 248 241 251 260 260 251 243 243 232 228 226 227 229 233 234 235 235 240 243 243 246 246 249 257
335 328 318 314 319 307 301 291 288 282 274 267 282 267 267 274 255 257 258 254 246 241 250 261 265 266 252 244 241 231 225 225 226 229 232 233 233 235 239 241 245 247 256 256
335 330 326 321 318 314 313 295 279 278 277 281 263 268 245 238 266 261 254 256 243 239 247 252 260 266 263 254 249 233 228 223 224 225 229 230 232 235 238 241 244 244 251 256
335 327 323 325 321 320 314 304 299 288 286 289 274 274 272 275 290 266 258 260 257 256 257 254 250 252 255 248 252 245 228 224 222 222 225 229 230 231 235 240 242 243 251 255
338 333 325 328 327 324 312 306 294 286 288 279 296 284 276 249 249 229 271 267 261 255 254 256 255 246 247 249 251 250 236 223 221 221 221 225 228 228 232 238 240 244 249 253
335 333 325 323 327 326 323 301 298 297 280 292 259 252 259 264 257 248 272 275 270 260 257 255 253 248 247 248 248 245 243 226 220 219 220 221 225 226 229 235 237 241 246 248
334 334 327 321 324 325 317 300 290 284 266 261 281 279 277 278 261 272 277 271 269 265 258 253 248 246 247 244 243 245 243 237 221 218 218 219 221 222 225 229 235 238 240 245
330 332 326 316 318 322 318 314 287 288 289 285 287 281 290 265 293 287 280 276 263 261 257 253 249 247 244 240 237 243 239 237 227 216 216 218 218 220 222 226 233 231 241 242
326 330 326 319 316 321 311 305 291 287 285 287 279 294 285 272 233 259 288 287 269 264 254 249 247 245 247 240 237 244 240 232 229 215 214 216 218 220 221 225 229 233 243 234
323 326 326 319 317 320 308 295 286 280 276 280 279 265 266 259 236 260 275 283 269 258 252 247 248 246 245 240 235 239 235 230 224 216 214 212 215 218 221 224 233 233 238 233
320 322 321 317 315 315 305 289 278 276 277 272 277 272 266 275 283 279 282 268 270 264 263 254 249 246 235 235 235 236 233 229 217 215 210 206 211 213 218 224 229 231 229 231
317 321 315 314 316 313 297 282 270 270 268 267 273 284 282 270 280 285 278 276 265 267 265 255 254 253 240 229 231 229 229 232 227 213 210 199 204 209 214 221 224 227 229 235
312 315 310 307 309 304 297 283 267 264 269 280 276 293 293 270 250 252 261 254 263 264 260 254 248 249 244 231 231 231 230 224 223 216 210 197 198 205 212 220 217 223 229 234
310 309 304 302 306 303 300 290 270 266 274 280 289 285 293 264 254 250 252 268 265 260 257 248 246 249 242 235 228 230 231 223 220 217 212 200 198 198 206 235 222 220 222 220
307 303 298 303 305 303 300 291 272 274 283 283 286 288 276 259 258 260 262 267 268 269 265 268 250 245 242 234 228 222 222 219 215 217 220 204 199 194 196 184 189 206 209 219
301 300 301 310 304 304 305 294 284 284 289 290 289 288 278 260 261 263 269 269 270 274 275 261 254 249 235 227 225 218 219 215 211 213 216 209 205 202 209 224 231 192 211 222
301 301 304 304 307 306 307 293 292 292 294 291 288 290 288 272 265 271 272 270 274 276 268 256 240 240 227 228 220 211 212 213 212 215 218 220 208 204 210 215 224 225 199 202
308 307 301 308 309 308 324 295 294 298 305 294 292 281 285 282 276 280 275 275 277 275 258 253 233 230 226 219 210 205 204 206 215 216 221 219 211 204 201 213 175 189 196 211
310 305 299 305 305 307 305 304 303 310 308 300 294 282 279 286 284 272 271 270 271 269 266 238 223 215 213 207 203 201 199 204 211 213 217 216 207 205 200 198 166 181 180 184
294 295 297 301 303 305 300 301 311 309 305 308 304 303 298 296 290 286 276 272 273 271 255 227 218 209 203 198 196 197 198 200 206 209 213 212 213 210 210 200 168 187 175 189
303 299 295 292 294 296 290 302 311 309 307 306 305 305 302 294 290 289 293 272 269 261 249 213 211 197 193 189 191 190 191 196 196 201 208 204 201 186 196 152 148 167 184 198
305 293 291 296 302 296 304 308 307 309 315 316 316 299 303 316 335 360 342 292 260 244 228 205 199 189 185 184 185 183 188 195 191 195 196 191 195 183 187 158 154 169 178 175
297 303 307 304 305 302 308 304 312 312 317 325 321 318 336 10 20 356 345 289 259 236 200 195 186 188 177 180 180 181 182 187 188 193 192 182 173 165 161 150 136 147 135 137
305 311 310 312 306 308 310 305 313 314 320 325 318 328 334 58 12 19 26 6 3 179 177 190 186 181 179 179 174 180 177 184 185 191 178 182 167 150 147 135 134 127 116 159
312 310 311 313 316 314 311 309 316 317 325 328 332 357 281 29 307 23 41 65 84 137 161 172 183 184 177 174 176 176 177 175 184 176 167 165 150 139 137 135 136 140 128 146
Height
5760 5757 5752 5748 5744 5738 5732 5726 5720 5717 5714 5711 5708 5704 5708 5709 5710 5713 5716 5719 5721 5722 5722 5724 5732 5740 5744 5753 5762 5774 5782 5790 5796 5803 5809 5815 5821 5827 5830 5834 5839 5842 5845 5849
5756 5749 5744 5738 5732 5725 5719 5712 5708 5707 5709 5703 5699 5694 5697 5702 5703 5704 5707 5711 5715 5717 5717 5716 5719 5726 5731 5735 5747 5757 5766 5775 5784 5792 5800 5806 5813 5817 5821 5825 5831 5835 5839 5843
5751 5746 5740 5732 5725 5715 5709 5704 5703 5700 5698 5694 5690 5691 5696 5699 5696 5697 5700 5705 5708 5711 5713 5712 5711 5714 5720 5723 5729 5741 5750 5760 5771 5780 5788 5796 5800 5806 5810 5816 5825 5830 5834 5836
5744 5736 5728 5722 5716 5707 5701 5696 5693 5691 5688 5687 5691 5685 5688 5690 5692 5691 5694 5698 5701 5703 5705 5706 5706 5706 5709 5714 5715 5722 5733 5745 5756 5767 5776 5784 5792 5797 5806 5811 5817 5822 5826 5828
5739 5732 5725 5717 5708 5701 5695 5690 5686 5683 5682 5681 5683 5683 5686 5690 5688 5687 5688 5690 5693 5695 5696 5697 5698 5698 5699 5704 5707 5708 5717 5729 5740 5752 5763 5773 5782 5791 5796 5800 5806 5813 5817 5822
5732 5724 5717 5711 5704 5695 5690 5684 5681 5679 5679 5677 5679 5682 5685 5683 5676 5679 5681 5682 5684 5685 5687 5688 5689 5690 5691 5693 5697 5699 5703 5713 5725 5737 5749 5760 5771 5780 5786 5790 5799 5805 5809 5814
5725 5717 5711 5704 5698 5690 5684 5681 5677 5677 5680 5677 5674 5674 5677 5671 5667 5673 5676 5674 5675 5677 5678 5679 5680 5681 5683 5685 5688 5689 5692 5699 5708 5723 5735 5748 5759 5769 5777 5784 5792 5796 5802 5807
5716 5712 5703 5696 5692 5687 5680 5677 5674 5670 5675 5671 5667 5666 5671 5665 5668 5668 5668 5668 5668 5667 5669 5669 5670 5672 5674 5676 5679 5681 5684 5690 5697 5708 5723 5736 5746 5756 5766 5776 5782 5787 5790 5796
5710 5706 5698 5692 5686 5682 5675 5671 5668 5664 5665 5662 5662 5663 5661 5658 5658 5657 5659 5660 5659 5659 5659 5660 5660 5662 5663 5665 5671 5673 5677 5682 5687 5697 5709 5722 5734 5744 5755 5765 5771 5776 5782 5790
5704 5698 5692 5685 5680 5675 5669 5666 5663 5661 5658 5656 5660 5655 5652 5652 5650 5650 5648 5651 5650 5650 5650 5650 5650 5653 5655 5659 5663 5666 5671 5675 5680 5686 5696 5708 5722 5734 5744 5753 5764 5771 5775 5781
5694 5690 5687 5678 5672 5667 5662 5659 5657 5655 5654 5650 5650 5655 5651 5646 5647 5644 5644 5643 5642 5641 5641 5640 5641 5645 5648 5651 5655 5659 5665 5669 5673 5678 5687 5698 5713 5726 5736 5743 5752 5762 5768 5771
5686 5681 5676 5671 5667 5660 5655 5652 5650 5646 5648 5644 5642 5642 5644 5640 5638 5637 5638 5634 5632 5631 5633 5633 5632 5633 5638 5644 5647 5652 5658 5663 5667 5672 5678 5689 5703 5715 5726 5736 5744 5753 5759 5766
5678 5672 5664 5662 5656 5653 5648 5645 5643 5640 5637 5635 5633 5633 5632 5633 5632 5629 5624 5624 5623 5623 5622 5624 5624 5626 5630 5636 5641 5646 5652 5657 5662 5666 5673 5681 5693 5703 5719 5705 5735 5744 5753 5761
5666 5664 5656 5651 5649 5643 5638 5636 5634 5631 5626 5626 5623 5620 5621 5619 5614 5613 5613 5611 5613 5615 5614 5613 5614 5617 5620 5626 5634 5639 5646 5651 5656 5661 5665 5673 5681 5695 5710 5711 5722 5736 5746 5753
5656 5652 5646 5641 5638 5631 5628 5626 5624 5621 5619 5614 5613 5609 5610 5605 5599 5598 5599 5602 5603 5605 5604 5604 5606 5608 5612 5617 5624 5633 5640 5647 5650 5654 5659 5665 5675 5688 5702 5694 5707 5720 5735 5747
5646 5642 5634 5632 5628 5623 5618 5617 5615 5613 5611 5606 5601 5597 5597 5590 5589 5590 5591 5591 5592 5594 5594 5593 5595 5599 5603 5609 5616 5626 5634 5641 5644 5648 5647 5658 5668 5682 5688 5685 5692 5711 5723 5735
5635 5629 5624 5624 5619 5615 5612 5608 5607 5605 5601 5595 5589 5587 5583 5582 5580 5580 5579 5580 5580 5582 5582 5582 5583 5586 5593 5600 5608 5618 5627 5634 5639 5642 5641 5651 5663 5673 5679 5685 5699 5712 5721 5731
5627 5621 5616 5613 5610 5607 5606 5601 5598 5595 5592 5586 5580 5576 5573 5570 5571 5572 5568 5565 5566 5567 5567 5567 5570 5573 5580 5589 5599 5609 5619 5628 5634 5635 5638 5646 5658 5668 5678 5685 5697 5708 5716 5724
5618 5613 5608 5605 5603 5600 5599 5596 5591 5585 5584 5576 5572 5567 5563 5559 5560 5564 5552 5552 5552 5553 5553 5555 5558 5563 5571 5581 5591 5601 5613 5622 5623 5629 5636 5643 5654 5664 5677 5688 5691 5701 5713 5724
5612 5608 5604 5602 5597 5593 5592 5586 5581 5576 5570 5566 5563 5559 5554 5551 5546 5554 5540 5540 5539 5539 5540 5544 5547 5554 5564 5575 5585 5597 5608 5613 5619 5628 5636 5642 5652 5661 5671 5684 5696 5704 5717 5709
5609 5605 5600 5596 5591 5590 5582 5578 5575 5568 5564 5558 5552 5548 5545 5539 5533 5533 5531 5527 5525 5525 5530 5534 5539 5547 5559 5570 5581 5592 5599 5609 5619 5627 5634 5641 5650 5659 5671 5684 5693 5698 5707 5720
5602 5597 5595 5592 5588 5586 5578 5573 5567 5561 5556 5552 5548 5540 5535 5529 5524 5519 5515 5512 5512 5515 5520 5526 5532 5541 5554 5566 5577 5587 5598 5607 5618 5625 5631 5640 5650 5663 5671 5683 5686 5703 5710 5716
5596 5594 5590 5587 5582 5575 5571 5563 5558 5553 5550 5547 5541 5535 5527 5521 5514 5507 5505 5501 5501 5504 5511 5518 5529 5539 5550 5561 5574 5587 5596 5607 5618 5625 5632 5640 5650 5661 5673 5684 5693 5704 5712 5717
5590 5587 5583 5578 5578 5568 5563 5558 5554 5549 5545 5541 5536 5529 5524 5520 5516 5510 5503 5496 5494 5496 5501 5513 5525 5537 5548 5560 5574 5586 5596 5608 5618 5625 5634 5642 5653 5665 5676 5688 5697 5706 5711 5716
5586 5582 5577 5574 5569 5563 5557 5553 5550 5546 5541 5538 5533 5527 5524 5520 5518 5510 5502 5495 5491 5492 5502 5512 5526 5536 5549 5562 5576 5587 5599 5610 5616 5624 5634 5643 5655 5667 5675 5689 5700 5708 5712 5715
5582 5576 5570 5566 5563 5557 5554 5551 5547 5542 5540 5536 5531 5528 5525 5525 5522 5514 5509 5505 5501 5502 5509 5516 5524 5536 5549 5562 5576 5589 5600 5611 5621 5628 5639 5652 5660 5666 5680 5694 5703 5709 5712 5718